Location: Crayja
(6.2254°N, 10.6273°W)
Time: 09:13:43
(UTC+00:00)

Cosmos 1943 Rocket - Pass Details

Date: 17 February 2020
Orbit: 814 x 842 km, 71.0° (Epoch: 28 March)

Event Time Altitude Azimuth Distance (km) Brightness Sun altitude
Rises 06:22:40 0° 359° (N) 3,323 5.2 -9.6°
Reaches altitude 10° 06:25:16 10° 8° (N) 2,394 4.5 -8.9°
Maximum altitude 06:30:15 36° 74° (ENE) 1,270 3.8 -7.7°
Drops below altitude 10° 06:35:16 10° 139° (SE) 2,410 5.5 -6.5°
Sets 06:37:53 0° 148° (SSE) 3,348 6.0 -5.9°
